Regional Weather Roundup
Issued by NWS

Home | Current Version | Previous Version | Text Only | Print | Product List | Glossary On
Versions: 1 2 3 4 5 6 7 8 9 10 11 12 13 14 15 16 17 18 19 20 21 22 23 24 25 26 27 28 29 30 31 32 33 34 35 36 37 38 39 40 41 42 43 44 45 46 47 48 49 50
000
ASUS43 KDTX 280401
RWRMI
MICHIGAN HOURLY REGIONAL WEATHER ROUNDUP
NATIONAL WEATHER SERVICE DETROIT/PONTIAC MI
1200 AM EDT SUN MAY 28 2017

NOTE: "FAIR" INDICATES FEW OR NO CLOUDS BELOW 12,000 FEET WITH NO
SIGNIFICANT WEATHER AND/OR OBSTRUCTION TO VISIBILITY.

MIZ047>049-052>055-059>063-066>070-074>076-081>083-280500-
SOUTHEAST LOWER MICHIGAN

CITY           SKY/WX    TMP DP  RH WIND       PRES   REMARKS
ADRIAN         CLOUDY    63  57  81 E3        29.87F
ALMA           CLEAR     57  55  90 CALM      29.85F
ANN ARBOR      CLOUDY    62  56  80 NE3       29.86F
BAD AXE        CLEAR     55  50  82 CALM      29.89F
CARO           MOCLDY    59  53  81 SE5       29.87S
DETROIT CITY   CLEAR     61  52  72 SE3       29.88F
DETROIT        CLOUDY    63  53  70 CALM      29.88F
FLINT          CLEAR     62  56  80 S7        29.87S
GROSSE ILE     MOCLDY    60  55  85 CALM      29.87F
HILLSDALE      CLOUDY    61  54  77 E5        29.86F
HOWELL         PTCLDY    61  55  78 E5        29.85F

CITY           SKY/WX    TMP DP  RH WIND       PRES   REMARKS
JACKSON        CLOUDY    65  56  72 S7        29.86F
LAMBERTVILLE   CLOUDY    63  53  71 E3        29.85F
LANSING        CLEAR     59  53  80 SE5       29.85F
LAPEER         FAIR      60  54  80 CALM      29.89R
MASON          PTCLDY    63  57  81 CALM      29.86F
MONROE         CLOUDY    63  55  74 NE3       29.86F
MT. CLEMENS    CLEAR     58  58 100 S3        29.88F
PONTIAC        PTCLDY    62  54  74 CALM      29.88S
PORT HOPE        N/A     55  51  86 S6        29.86F
PORT HURON     CLEAR     54  52  94 CALM      29.90S
TRI CITIES     CLEAR     63  57  81 SE9       29.85F
MIDLAND        FAIR      58  54  86 E3        29.84F
TROY           CLEAR     64  52  66 CALM      29.90F
SAGINAW HB     PTCLDY    63  55  77 SE6       29.85F
$$
MIZ043>046-050>051-056>058-064>065-071>073-077>080-280500-
SOUTHWEST LOWER MICHIGAN

CITY           SKY/WX    TMP DP  RH WIND       PRES   REMARKS
BATTLE CREEK   CLOUDY    62  58  86 S6        29.87S
BENTON HARBOR  CLOUDY    56  53  90 CALM      29.86R
BIG RAPIDS     MOCLDY    58  52  81 CALM      29.87R
COLDWATER      CLOUDY    62  57  82 CALM      29.86S
FREMONT        FAIR      57  50  76 CALM      29.86R
HOLLAND        CLOUDY    60  53  77 SW3       29.87R
GRAND RAPIDS   PTCLDY    64  57  78 W3        29.86S
IONIA          FAIR      63  57  80 CALM      29.84F
KALAMAZOO      CLOUDY    63  57  81 CALM      29.87R
LUDINGTON      CLEAR     51  50  95 CALM      29.84S
MARSHALL       CLOUDY    62  59  89 CALM      29.86F
MOUNT PLEASANT CLEAR     58  55  88 CALM      29.84S
MUSKEGON       CLEAR     57  52  83 CALM      29.86R
SOUTH HAVEN    CLOUDY    57  55  92 CALM      29.87R
$$
MIZ016>042-280500-
NORTHERN LOWER MICHIGAN

CITY           SKY/WX    TMP DP  RH WIND       PRES   REMARKS
ALPENA         CLOUDY    55  51  86 CALM      29.86F
BEAVER ISLAND  CLOUDY    52  50  93 CALM      29.83F
BELLAIRE       PTCLDY    55  53  91 CALM      29.83S
CADILLAC       MOCLDY    56  53  91 CALM      29.86S
CHARLEVOIX     PTCLDY    56  53  89 SE3       29.86S
FRANKFORT      CLOUDY    52  48  86 CALM      29.84S
GAYLORD        CLOUDY    60  52  74 CALM      29.85F
GRAYLING       PTCLDY    56  53  89 CALM      29.86S
HARBOR SPRINGS CLOUDY    55  55  98 CALM      29.83F
HOUGHTON LAKE  CLEAR     59  54  83 CALM      29.85F
MANISTEE       CLEAR     51  49  92 CALM      29.84S
OSCODA         CLEAR     53  49  86 S9        29.86F
PELLSTON       CLOUDY    56  52  86 CALM      29.83F
ROGERS CITY    CLOUDY    61  52  72 SE5       29.85S
TRAVERSE CITY  CLEAR     56  52  86 CALM      29.82F
$$
MIZ007>008-015-280500-
EASTERN UPPER MICHIGAN

CITY           SKY/WX    TMP DP  RH WIND       PRES   REMARKS
KINROSS        CLOUDY    57  49  74 CALM      29.84F
MACKINAC ISLAN CLOUDY    51  47  86 CALM      29.82F
NEWBERRY       CLOUDY    55  54  97 CALM      29.82F
S. S. MARIE    CLOUDY    59  50  72 E3        29.84F
MUNISING         N/A     50  48  93 N3        29.79F
$$
MIZ004>006-011>014-085-280500-
CENTRAL UPPER MICHIGAN

CITY           SKY/WX    TMP DP  RH WIND       PRES   REMARKS
MANISTIQUE     CLOUDY    50  47  88 SE6       29.81F
ESCANABA       CLOUDY    56  52  86 N3        29.79S
SAWYER-GWINN   LGT RAIN  54  53  96 NW5       29.82S
$$
MIZ001>003-009>011-084-280500-
WESTERN UPPER MICHIGAN

CITY           SKY/WX    TMP DP  RH WIND       PRES   REMARKS
IRON MOUNTAIN  PTCLDY    61  49  64 CALM      29.80F
HOUGHTON       CLEAR     50  47  89 CALM      29.78F
COPPER HARBOR    N/A     55  52  89 VRB5      29.77F
IRONWOOD       PTCLDY    59  46  62 SW6       29.81F
$$

ABBREVIATIONS USED IN REMARKS
   TC - TEMPERATURE IN CELSIUS
  WCI - WIND CHILL INDEX
   HX - HEAT INDEX
  VSB - VISIBILITY





USA.gov is the U.S. government's official web portal to all federal, state and local government web resources and services.